International Skating Union - Official Site

Essent ISU World Cup Inzell
March 7-9, 2014

Draw | Lap Times | Index | World Cup

Referee: Karl  SKOOG  (SWE)
Starter: John Magne  ELIASSEN  (NOR)
StartTime: EndTime: Air Temp: Ice Temp: Humidity:
10:27 10:54 11℃ -6℃ 44%
Result 3000m Ladies Division B
Rankings as of Mar 8 2014 10:56AM
Rank: No.: Name: Nation: Time: Behind: Points:
1 49 Annouk  van der Weijden NED NED 4:07.07200m - 19.99 - (19.9)
600m - 51.59 - (31.6)
1000m - 1:23.57 - (31.9)
1400m - 1:56.12 - (32.5)
1800m - 2:28.57 - (32.4)
2200m - 3:01.19 - (32.6)
2600m - 3:33.99 - (32.8)
3000m - 4:07.07 - (33.0)
32
2 67 Yuliya  Skokova RUS RUS 4:08.77200m - 20.49 - (20.4)
600m - 52.72 - (32.2)
1000m - 1:25.07 - (32.3)
1400m - 1:57.33 - (32.2)
1800m - 2:29.70 - (32.3)
2200m - 3:02.14 - (32.4)
2600m - 3:35.12 - (32.9)
3000m - 4:08.77 - (33.6)
1.70 27
3 1 Jelena  Peeters BEL BEL 4:10.75200m - 20.20 - (20.1)
600m - 51.18 - (30.9)
1000m - 1:23.16 - (31.9)
1400m - 1:55.67 - (32.5)
1800m - 2:28.57 - (32.8)
2200m - 3:02.06 - (33.4)
2600m - 3:36.10 - (34.0)
3000m - 4:10.75 - (34.6)
3.68 23
4 54 Mari  Hemmer NOR NOR 4:11.51200m - 21.38 - (21.3)
600m - 54.89 - (33.5)
1000m - 1:27.92 - (33.0)
1400m - 2:00.77 - (32.8)
1800m - 2:33.48 - (32.7)
2200m - 3:06.27 - (32.7)
2600m - 3:38.87 - (32.5)
3000m - 4:11.51 - (32.6)
4.44 19
5 22 Francesca  Lollobrigida ITA ITA 4:12.92200m - 20.41 - (20.4)
600m - 51.90 - (31.4)
1000m - 1:24.08 - (32.1)
1400m - 1:57.19 - (33.1)
1800m - 2:30.44 - (33.2)
2200m - 3:04.63 - (34.1)
2600m - 3:38.79 - (34.1)
3000m - 4:12.92 - (34.1)
5.85 15
6 60 Anna  Chernova RUS RUS 4:13.32200m - 21.22 - (21.2)
600m - 53.42 - (32.2)
1000m - 1:26.11 - (32.6)
1400m - 1:59.13 - (33.0)
1800m - 2:32.11 - (32.9)
2200m - 3:05.67 - (33.5)
2600m - 3:39.46 - (33.7)
3000m - 4:13.32 - (33.8)
6.25 11
7 61 Yevgeniya  Dmitriyeva RUS RUS 4:13.65200m - 21.22 - (21.2)
600m - 53.41 - (32.1)
1000m - 1:25.83 - (32.4)
1400m - 1:58.39 - (32.5)
1800m - 2:31.47 - (33.0)
2200m - 3:05.15 - (33.6)
2600m - 3:39.24 - (34.0)
3000m - 4:13.65 - (34.4)
6.58 9
8 16 Isabell  Ost GER GER 4:13.86200m - 20.46 - (20.4)
600m - 53.52 - (33.0)
1000m - 1:26.35 - (32.8)
1400m - 1:59.27 - (32.9)
1800m - 2:32.43 - (33.1)
2200m - 3:05.98 - (33.5)
2600m - 3:39.82 - (33.8)
3000m - 4:13.86 - (34.0)
6.79 7
9 10 Stephanie  Beckert GER GER 4:14.39200m - 21.20 - (21.1)
600m - 53.37 - (32.1)
1000m - 1:26.33 - (32.9)
1400m - 1:59.40 - (33.0)
1800m - 2:33.11 - (33.7)
2200m - 3:06.71 - (33.5)
2600m - 3:40.64 - (33.9)
3000m - 4:14.39 - (33.7)
7.32 6
10 66 Yekaterina  Shikhova RUS RUS 4:14.83200m - 20.65 - (20.6)
600m - 52.92 - (32.2)
1000m - 1:25.06 - (32.1)
1400m - 1:57.75 - (32.6)
1800m - 2:31.25 - (33.5)
2200m - 3:05.85 - (34.6)
2600m - 3:40.59 - (34.7)
3000m - 4:14.83 - (34.2)
7.76 5
11 23 Shoko  Fujimura JPN JPN 4:14.89200m - 20.65 - (20.6)
600m - 53.57 - (32.9)
1000m - 1:27.15 - (33.5)
1400m - 2:00.45 - (33.3)
1800m - 2:33.67 - (33.2)
2200m - 3:07.15 - (33.4)
2600m - 3:41.10 - (33.9)
3000m - 4:14.89 - (33.7)
7.82 4
12 72 Maria  Lamb USA USA 4:16.51200m - 20.93 - (20.9)
600m - 53.21 - (32.2)
1000m - 1:26.28 - (33.0)
1400m - 1:59.96 - (33.6)
1800m - 2:33.88 - (33.9)
2200m - 3:07.86 - (33.9)
2600m - 3:41.95 - (34.0)
3000m - 4:16.51 - (34.5)
9.44 3
13 74 Anna  Ringsred USA USA 4:17.23200m - 20.55 - (20.5)
600m - 53.12 - (32.5)
1000m - 1:26.28 - (33.1)
1400m - 1:59.84 - (33.5)
1800m - 2:33.87 - (34.0)
2200m - 3:08.27 - (34.4)
2600m - 3:42.59 - (34.3)
3000m - 4:17.23 - (34.6)
10.16 2
14 40 Marije  Joling NED NED 4:17.93200m - 20.58 - (20.5)
600m - 53.14 - (32.5)
1000m - 1:26.25 - (33.1)
1400m - 1:57.35 - (31.1)
1800m - 2:31.81 - (34.4)
2200m - 3:07.02 - (35.2)
2600m - 3:42.62 - (35.6)
3000m - 4:17.93 - (35.3)
10.86 1
15 9 Jennifer  Bay GER GER 4:18.38200m - 20.94 - (20.9)
600m - 53.21 - (32.2)
1000m - 1:26.07 - (32.8)
1400m - 2:00.02 - (33.9)
1800m - 2:34.11 - (34.0)
2200m - 3:08.74 - (34.6)
2600m - 3:43.40 - (34.6)
3000m - 4:18.38 - (34.9)
11.31 0
16 7 Saskia  Alusalu EST EST 4:18.69200m - 20.65 - (20.6)
600m - 53.96 - (33.3)
1000m - 1:24.17 - (30.2)
1400m - 2:00.11 - (35.9)
1800m - 2:34.34 - (34.2)
2200m - 3:08.84 - (34.5)
2600m - 3:43.62 - (34.7)
3000m - 4:18.69 - (35.0)
11.62 0
17 58 Katarzyna  Wozniak POL POL 4:19.09200m - 21.32 - (21.3)
600m - 53.96 - (32.6)
1000m - 1:27.10 - (33.1)
1400m - 2:00.47 - (33.3)
1800m - 2:34.58 - (34.1)
2200m - 3:09.27 - (34.6)
2600m - 3:44.30 - (35.0)
3000m - 4:19.09 - (34.7)
12.02 0
18 53 Camilla-Hallås  Farestveit NOR NOR 4:20.42200m - 21.44 - (21.4)
600m - 54.28 - (32.8)
1000m - 1:27.52 - (33.2)
1400m - 2:01.17 - (33.6)
1800m - 2:35.30 - (34.1)
2200m - 3:09.83 - (34.5)
2600m - 3:44.97 - (35.1)
3000m - 4:20.42 - (35.4)
13.35 0